Temperature
22 22 22 22 22 22 22 22 21 21 21 20 21 21 21 20 19 19 19 19 18 18 17 17 16 16 16 16 16 16 15 15 15 15 14 14 14 14 14 14 14 14 14 14
22 22 22 22 22 21 22 21 21 21 20 21 21 21 21 20 19 19 19 19 18 18 17 17 16 16 16 16 16 15 15 15 15 15 14 14 14 14 14 13 13 13 13 13
22 22 21 21 21 21 22 21 21 21 20 21 21 21 21 21 20 19 18 18 18 18 18 17 17 16 16 16 16 15 15 15 15 15 14 14 14 13 13 13 13 13 13 13
22 21 21 21 21 22 21 21 21 20 21 21 21 21 22 21 20 19 18 18 18 17 17 17 16 16 16 16 15 15 15 15 15 15 14 14 14 13 13 13 13 13 13 13
21 21 21 21 21 21 21 21 21 21 21 21 21 21 22 21 21 20 19 18 17 17 17 16 16 16 16 15 15 15 15 15 15 14 14 14 13 13 13 13 13 13 13 13
21 21 21 21 21 21 20 21 20 21 21 20 21 21 21 22 21 21 20 18 17 17 16 16 16 15 15 15 15 15 15 15 15 14 14 13 13 13 13 13 13 12 12 12
21 21 21 21 21 20 21 21 20 20 20 21 21 20 21 21 21 20 19 18 17 17 16 16 15 15 15 15 15 15 15 15 14 14 14 13 13 13 13 13 12 12 12 12
20 20 21 21 21 21 21 21 20 20 21 21 20 20 21 20 19 18 18 17 16 16 16 15 15 15 15 15 15 15 15 14 14 14 13 13 13 13 13 12 12 12 12 12
20 20 20 20 20 21 21 21 21 21 21 20 21 21 21 20 19 18 18 17 16 16 15 15 15 15 15 15 15 14 14 14 14 13 13 13 13 13 13 12 12 12 12 12
21 20 20 20 20 20 21 21 20 20 20 20 20 21 21 20 20 19 18 17 16 15 15 14 15 15 15 15 14 14 14 14 13 13 13 13 13 12 12 12 12 12 12 11
20 20 20 20 20 20 20 20 20 20 20 20 20 21 21 20 20 19 18 17 16 15 14 14 14 14 14 14 14 14 14 13 13 13 13 12 12 12 12 12 12 11 11 11
19 20 20 20 20 19 20 20 20 20 20 20 20 20 20 20 19 18 18 16 15 14 14 14 13 14 14 14 14 13 13 13 13 13 12 12 12 12 12 12 11 11 11 11
18 19 19 19 19 19 19 19 19 20 20 20 20 20 20 19 19 18 17 16 15 14 13 13 13 13 13 13 13 13 13 13 13 12 12 12 11 11 11 11 11 11 11 11
18 19 19 19 19 19 19 18 18 19 19 19 20 20 20 19 18 17 16 15 14 13 13 13 12 12 12 12 12 13 13 13 12 12 11 11 11 11 11 11 11 10 10 10
18 18 19 19 19 18 18 18 18 18 19 19 19 19 20 19 18 17 16 15 14 13 12 12 12 12 12 12 12 12 12 12 12 11 11 11 11 11 11 10 10 10 10 10
17 18 18 18 18 18 17 18 18 18 18 18 18 19 19 18 17 16 15 14 13 13 12 12 12 12 12 12 12 12 12 12 11 11 11 11 11 10 10 10 10 10 9 9
17 17 17 18 18 17 17 18 18 18 18 18 18 18 18 17 16 16 15 14 13 13 12 12 11 11 11 11 11 11 11 11 11 11 10 10 10 10 10 10 9 9 9 9
16 17 17 17 17 16 18 18 17 17 17 17 17 17 17 16 15 14 14 14 13 12 12 11 11 11 11 11 11 11 10 10 10 10 10 10 10 10 10 9 9 9 9 9
16 16 16 17 17 17 18 17 16 17 17 17 17 16 16 15 14 15 14 13 12 12 11 11 11 11 11 11 10 10 10 10 10 10 10 10 10 9 9 9 9 9 8 8
14 15 16 16 16 16 17 17 16 16 17 17 16 16 15 15 16 16 13 12 12 12 11 11 11 10 10 10 10 10 10 10 10 10 9 9 9 9 9 9 8 8 8 8
15 15 15 16 16 17 17 15 15 16 17 16 16 15 15 15 16 14 12 12 11 11 11 11 10 10 10 10 10 10 9 9 9 9 9 8 8 8 8 8 8 8 8 8
15 15 15 15 15 16 15 15 16 17 16 15 15 14 14 14 13 12 11 11 11 11 10 10 10 10 10 9 9 9 9 9 9 8 8 8 8 8 8 8 8 8 8 7
15 16 16 16 16 16 14 15 15 14 15 15 14 14 13 12 12 11 11 11 10 10 10 10 10 9 9 9 9 9 9 8 8 8 8 8 7 7 7 7 7 7 7 7
14 13 14 15 15 14 13 13 13 13 13 13 13 12 12 12 12 11 11 10 10 10 10 9 9 9 9 9 9 8 8 8 8 8 7 7 7 7 7 6 7 7 7 7
14 13 13 14 15 14 13 13 13 12 12 12 12 12 12 11 11 11 10 10 10 9 9 9 9 9 8 8 8 8 8 8 7 7 7 7 6 6 6 6 6 6 6 6
13 13 13 14 15 15 14 13 12 12 12 12 12 11 11 11 11 10 10 10 9 9 9 9 8 8 8 8 8 8 8 7 7 7 6 6 6 6 6 6 6 6 6 6
Wind_Speed
4 5 5 5 5 2 4 4 3 2 2 3 5 5 4 4 4 5 5 6 6 6 6 5 5 5 5 5 4 4 4 3 2 2 2 1 2 1 2 3 3 3 3 4
6 5 4 3 4 5 5 5 4 2 2 4 5 6 4 4 5 5 5 6 6 6 6 6 6 6 6 6 5 5 4 4 3 2 2 1 1 1 2 2 2 3 3 3
5 2 4 6 6 6 6 6 5 3 2 4 4 5 4 3 4 4 4 5 5 6 6 7 7 7 6 6 6 5 5 5 4 4 2 2 2 1 1 1 1 2 2 2
4 3 6 7 6 6 5 3 4 4 5 3 4 5 3 3 3 3 3 4 5 5 6 6 6 7 7 7 7 6 6 5 5 5 4 4 3 2 1 0 1 1 1 2
3 4 5 6 4 5 2 2 4 5 5 6 5 6 3 2 3 3 3 3 4 5 6 6 6 6 6 6 6 6 6 5 5 5 5 4 3 2 1 1 1 0 1 1
3 3 3 3 2 4 4 4 3 4 5 6 5 5 4 2 4 3 3 2 2 3 4 5 5 5 5 5 6 6 6 6 5 6 6 5 4 3 2 2 1 0 0 1
4 4 4 3 4 5 6 5 3 4 5 4 1 5 4 2 2 4 3 2 2 2 3 4 4 5 5 5 6 6 7 7 6 6 6 6 5 4 4 3 2 1 1 1
5 5 4 4 5 5 7 7 5 4 5 3 3 5 2 1 2 3 3 2 1 2 3 3 4 4 5 5 6 6 7 7 7 6 6 5 5 3 2 3 2 1 1 1
3 3 3 3 4 5 6 6 6 6 6 6 5 4 3 2 2 1 1 1 2 2 2 2 3 3 4 5 6 6 7 6 6 6 6 5 5 4 3 3 2 2 1 1
3 4 3 3 4 3 4 4 4 5 5 6 6 6 4 3 3 2 2 2 2 2 2 2 2 2 2 3 4 5 6 6 6 6 5 4 5 4 4 3 3 2 2 1
4 4 4 4 6 6 6 6 5 5 6 6 6 4 1 3 3 3 3 3 2 2 2 2 1 1 1 2 2 3 5 5 6 6 6 5 5 4 4 3 3 2 2 2
2 3 5 6 3 3 6 7 7 7 7 7 8 5 0 3 3 3 3 2 1 2 2 1 1 1 1 2 2 2 3 4 5 5 6 5 5 4 4 3 3 2 2 1
3 4 5 5 5 5 6 6 6 7 8 9 10 6 1 2 2 2 2 2 1 1 1 1 1 1 1 1 1 1 2 3 4 5 5 5 5 4 4 4 3 2 2 2
3 6 8 8 5 5 7 7 8 9 9 10 12 12 8 6 4 4 4 3 2 2 1 1 2 2 2 2 2 2 2 3 4 5 5 5 5 4 4 3 3 3 2 2
3 7 8 8 6 7 9 10 11 13 13 13 13 13 11 8 7 6 5 4 3 3 3 3 3 2 1 2 2 2 2 2 3 4 4 4 4 3 3 3 3 2 2 2
3 6 7 9 7 7 10 11 12 13 13 14 15 14 8 7 6 6 5 4 4 4 4 3 3 2 2 2 2 2 2 3 3 4 3 3 3 3 3 3 3 2 2 2
4 6 8 9 6 7 11 10 11 10 10 11 13 11 7 7 6 6 6 5 6 5 4 3 3 3 2 2 2 3 3 3 3 3 3 3 3 3 3 3 3 3 3 2
7 8 6 7 7 10 5 2 5 8 9 10 10 9 8 8 7 6 6 5 5 4 4 3 3 3 3 2 2 3 3 3 3 2 2 2 3 3 3 3 3 3 3 3
8 8 6 6 9 10 7 4 4 7 9 8 9 9 7 4 5 6 4 4 4 4 3 3 3 3 3 3 3 3 3 3 3 3 2 2 3 3 3 3 3 3 3 3
6 8 7 7 8 8 4 2 3 5 8 4 6 7 6 5 7 4 1 2 3 3 2 2 2 2 3 2 3 4 4 4 3 3 2 2 2 3 3 3 3 3 3 3
5 6 9 10 10 8 3 2 4 6 4 1 4 6 6 7 6 3 1 2 2 2 2 2 2 2 2 3 4 4 4 4 3 3 2 2 2 2 2 3 3 3 3 3
6 6 7 8 9 8 3 4 6 6 4 4 5 5 6 6 4 3 3 2 2 2 2 2 2 2 2 3 4 4 4 3 3 3 2 2 2 2 2 2 2 2 2 2
8 7 5 7 7 4 4 6 6 6 7 6 5 5 5 5 5 5 4 3 3 3 2 2 2 2 2 3 3 4 3 3 3 3 3 3 2 2 2 2 2 2 2 2
6 5 7 8 10 9 9 9 9 8 9 7 6 5 5 6 5 5 4 4 3 3 3 3 2 2 2 2 3 3 3 3 4 4 4 3 3 2 2 2 2 2 2 2
7 5 8 12 12 10 10 10 9 8 8 7 7 6 6 6 6 5 4 4 3 3 3 3 3 3 2 2 3 3 3 4 4 4 3 3 3 2 2 2 1 2 2 2
9 10 10 10 9 8 9 7 7 8 8 7 6 6 6 6 6 5 4 4 3 3 3 3 3 2 2 2 3 3 4 5 4 4 3 3 2 2 2 2 1 2 1 1
Wind_Direction
177 191 194 195 212 226 198 202 205 230 230 235 246 264 265 232 222 230 228 224 220 214 200 191 191 188 183 177 170 165 162 160 149 141 141 129 111 91 78 64 60 58 56 53
181 205 211 190 186 185 197 205 217 224 226 246 261 272 267 233 224 234 237 231 226 215 202 192 194 193 194 185 180 181 180 174 165 160 163 146 127 103 91 71 61 59 54 52
200 185 172 177 180 198 213 223 226 243 241 239 266 256 232 216 219 231 241 242 231 220 212 203 200 198 195 195 192 189 188 181 173 164 156 140 131 126 112 92 67 38 38 43
204 186 180 188 198 213 219 225 225 224 238 255 258 275 254 229 218 233 242 240 235 225 220 214 207 205 202 202 198 195 186 184 176 169 170 168 163 149 141 127 118 67 47 40
193 181 191 207 222 223 223 176 212 231 254 266 246 265 261 212 250 257 239 236 233 225 217 213 209 209 208 201 195 196 186 183 180 176 179 188 183 168 143 135 108 62 46 30
212 198 223 226 200 194 163 164 187 223 245 252 249 256 267 239 271 277 246 238 222 210 204 209 206 201 203 196 191 189 185 184 187 187 187 191 190 177 165 163 175 235 330 348
199 199 197 196 187 182 196 212 222 223 224 243 209 250 258 311 300 284 273 260 227 203 196 192 194 197 195 193 195 192 191 191 191 196 197 196 198 194 190 189 198 225 260 288
213 205 185 197 219 213 210 229 246 254 255 266 235 247 258 17 319 299 281 270 226 214 205 200 202 205 202 199 199 199 198 198 196 202 204 201 199 202 203 202 201 214 251 291
225 203 160 186 218 218 208 222 257 269 270 268 247 250 258 264 275 266 248 246 237 221 209 208 209 210 207 205 205 204 202 202 201 206 204 201 200 204 206 209 209 216 232 253
256 231 204 179 189 205 241 224 223 243 259 261 255 255 258 263 268 261 254 257 253 220 204 206 204 206 210 211 215 210 209 205 202 204 206 202 204 204 201 203 211 219 230 233
247 236 218 206 221 226 202 208 230 247 261 269 272 267 306 278 282 274 273 265 246 221 210 209 200 200 196 194 204 212 213 206 199 200 201 201 197 198 196 196 199 209 216 222
231 253 244 235 225 258 238 237 235 248 254 257 270 274 349 283 290 282 286 283 246 219 210 211 206 192 180 194 203 213 214 204 199 200 198 197 189 187 191 192 191 197 210 215
198 237 247 232 211 204 223 225 235 252 261 254 258 261 133 272 282 294 299 304 284 229 217 227 234 223 211 202 215 215 210 196 188 191 192 191 190 191 195 195 189 196 205 208
234 244 253 259 269 245 234 229 229 238 251 258 258 271 273 275 286 296 298 291 280 258 233 228 234 236 231 220 209 198 192 181 176 181 186 190 193 193 194 194 195 199 205 209
243 252 256 263 269 256 256 247 237 240 250 260 270 274 277 278 281 286 283 275 266 261 252 243 240 239 227 200 185 176 180 171 172 177 186 192 195 191 186 187 194 193 199 213
257 253 259 260 253 252 261 255 245 245 251 257 266 272 277 277 275 277 272 262 257 258 254 253 252 244 230 212 193 182 185 177 176 180 188 191 192 191 189 190 191 188 195 210
240 244 257 264 258 264 257 246 237 238 240 249 261 271 273 273 274 274 269 253 252 256 255 247 247 243 241 238 222 203 192 175 177 182 182 185 187 193 197 194 192 196 204 213
238 243 251 264 260 252 258 220 238 245 251 251 260 272 270 273 279 274 261 252 255 253 248 245 241 238 243 239 225 208 188 176 178 178 181 189 189 194 199 197 199 210 212 215
227 230 237 246 256 264 259 233 225 245 263 251 253 264 267 273 276 259 240 249 259 255 248 245 236 231 230 226 214 196 187 183 179 177 186 199 201 196 198 201 209 216 216 218
201 222 233 239 253 256 259 189 211 248 259 240 246 256 251 245 267 269 233 257 261 259 247 239 231 221 220 215 206 202 198 194 192 190 198 203 204 204 203 210 218 218 216 222
199 215 227 240 250 257 262 165 187 236 281 297 258 257 247 249 281 311 268 255 258 252 238 229 221 221 222 206 203 208 205 207 200 192 189 194 201 209 208 212 215 211 210 215
222 221 223 228 241 249 163 174 223 276 317 287 270 262 255 259 275 266 248 242 237 235 223 216 220 226 219 205 205 209 212 206 187 183 186 196 203 205 210 205 202 205 201 208
230 235 242 232 246 284 213 237 270 295 284 280 270 265 255 251 252 245 243 236 228 226 223 231 227 222 218 213 210 210 208 191 184 186 190 195 196 202 213 207 196 195 202 217
235 240 243 252 257 267 264 263 270 275 274 273 267 257 244 243 242 235 235 233 229 229 229 224 219 215 227 228 217 213 187 184 191 193 193 193 191 197 212 216 205 204 207 216
249 224 245 258 266 272 263 259 270 276 274 270 261 252 243 239 239 233 231 232 232 232 225 222 221 222 225 227 216 197 183 187 193 193 192 194 192 199 205 209 235 233 230 242
237 234 243 259 266 269 278 277 275 271 268 263 258 256 247 240 235 231 232 232 226 219 215 219 228 230 223 219 215 193 189 190 189 188 189 190 194 201 206 205 214 23 307 333
Height
1517 1517 1517 1518 1518 1519 1521 1524 1527 1528 1528 1530 1528 1527 1527 1529 1530 1530 1531 1532 1532 1533 1535 1536 1537 1538 1539 1540 1541 1541 1542 1542 1542 1542 1542 1542 1542 1542 1542 1542 1541 1541 1540 1539
1516 1517 1517 1518 1520 1521 1522 1525 1526 1527 1528 1528 1526 1526 1524 1526 1528 1529 1529 1529 1530 1531 1533 1534 1535 1536 1538 1539 1539 1541 1541 1541 1541 1542 1542 1542 1542 1542 1542 1541 1541 1541 1540 1539
1515 1517 1518 1519 1520 1521 1521 1523 1524 1526 1527 1526 1526 1524 1521 1523 1525 1527 1528 1528 1528 1529 1530 1532 1533 1534 1536 1537 1538 1539 1540 1540 1541 1541 1541 1542 1542 1542 1542 1541 1541 1540 1540 1539
1516 1517 1519 1519 1519 1520 1522 1521 1523 1526 1527 1526 1526 1527 1518 1518 1521 1523 1525 1525 1526 1527 1528 1529 1531 1532 1533 1535 1536 1537 1538 1539 1539 1540 1540 1540 1541 1541 1541 1541 1540 1540 1540 1539
1516 1518 1518 1519 1519 1520 1521 1522 1524 1524 1524 1525 1523 1525 1516 1515 1518 1519 1521 1523 1524 1525 1526 1527 1528 1530 1531 1533 1534 1535 1536 1537 1537 1538 1538 1539 1540 1540 1540 1540 1540 1540 1539 1538
1516 1519 1519 1518 1520 1521 1522 1523 1524 1523 1523 1529 1522 1524 1519 1513 1515 1516 1519 1521 1522 1523 1524 1525 1526 1528 1529 1530 1531 1533 1534 1534 1535 1536 1536 1537 1538 1538 1539 1539 1539 1539 1538 1538
1517 1517 1518 1520 1520 1521 1521 1523 1529 1530 1529 1524 1520 1523 1518 1512 1515 1516 1518 1519 1520 1522 1523 1523 1524 1525 1526 1528 1529 1530 1531 1532 1533 1534 1535 1535 1536 1537 1537 1538 1537 1537 1537 1536
1519 1519 1517 1517 1517 1518 1518 1520 1527 1532 1527 1520 1520 1520 1513 1514 1517 1518 1518 1519 1519 1520 1521 1522 1522 1523 1524 1525 1526 1528 1529 1530 1531 1532 1533 1534 1534 1535 1536 1536 1536 1536 1535 1535
1516 1518 1516 1518 1518 1517 1518 1518 1516 1520 1520 1523 1517 1513 1513 1513 1515 1516 1517 1518 1518 1519 1520 1520 1521 1521 1522 1523 1524 1525 1527 1528 1528 1530 1531 1532 1533 1533 1533 1534 1534 1534 1534 1533
1514 1518 1516 1518 1519 1519 1517 1516 1519 1521 1526 1524 1518 1514 1512 1510 1511 1513 1515 1516 1517 1518 1518 1518 1519 1519 1520 1521 1522 1523 1524 1525 1526 1527 1529 1529 1530 1531 1531 1532 1532 1532 1532 1532
1515 1517 1517 1517 1516 1515 1518 1519 1517 1516 1517 1522 1521 1515 1506 1508 1510 1512 1514 1515 1516 1517 1517 1517 1517 1518 1518 1519 1520 1520 1521 1522 1523 1525 1526 1527 1528 1529 1529 1530 1530 1530 1530 1530
1517 1515 1516 1514 1513 1515 1514 1513 1515 1519 1518 1516 1517 1515 1507 1509 1511 1512 1513 1514 1515 1516 1516 1516 1516 1516 1516 1517 1517 1518 1519 1520 1520 1522 1523 1524 1525 1526 1527 1527 1527 1528 1528 1528
1517 1516 1518 1516 1517 1517 1515 1515 1515 1515 1515 1515 1516 1512 1507 1509 1511 1512 1513 1514 1514 1514 1514 1514 1514 1514 1514 1514 1515 1515 1516 1517 1518 1519 1520 1522 1522 1523 1524 1525 1525 1525 1525 1525
1518 1514 1516 1518 1512 1510 1513 1515 1515 1516 1515 1512 1509 1506 1505 1506 1509 1511 1512 1513 1513 1513 1513 1512 1512 1512 1512 1512 1513 1513 1514 1514 1515 1516 1518 1519 1520 1520 1521 1522 1522 1523 1523 1523
1517 1513 1511 1510 1510 1511 1512 1511 1513 1513 1510 1510 1505 1504 1503 1505 1508 1510 1510 1511 1511 1511 1511 1510 1510 1510 1510 1510 1510 1511 1511 1512 1513 1514 1515 1516 1517 1518 1518 1519 1519 1520 1520 1520
1516 1513 1512 1511 1510 1511 1512 1509 1509 1509 1508 1506 1505 1503 1503 1505 1507 1508 1508 1509 1509 1508 1509 1508 1508 1508 1508 1508 1509 1509 1509 1510 1511 1512 1512 1513 1514 1515 1515 1516 1516 1517 1517 1517
1515 1513 1514 1510 1509 1510 1509 1503 1504 1504 1504 1505 1503 1501 1502 1503 1505 1505 1506 1506 1506 1507 1507 1506 1506 1506 1506 1506 1506 1507 1507 1508 1509 1509 1510 1511 1511 1512 1513 1513 1514 1514 1514 1515
1514 1513 1512 1510 1511 1514 1501 1500 1501 1502 1502 1502 1501 1501 1502 1502 1503 1504 1504 1504 1504 1504 1504 1504 1504 1504 1504 1504 1505 1505 1505 1506 1506 1507 1508 1508 1508 1509 1510 1510 1511 1511 1512 1512
1513 1512 1512 1510 1509 1503 1499 1500 1502 1501 1498 1498 1499 1499 1501 1501 1501 1500 1501 1501 1501 1501 1501 1502 1502 1502 1502 1502 1502 1503 1503 1503 1504 1504 1505 1505 1506 1506 1507 1507 1507 1508 1509 1509
1513 1511 1510 1509 1510 1505 1497 1498 1500 1501 1497 1495 1496 1497 1498 1499 1497 1495 1498 1498 1498 1499 1499 1499 1498 1499 1499 1499 1500 1500 1501 1501 1501 1501 1502 1503 1503 1504 1504 1504 1505 1505 1506 1506
1509 1509 1508 1506 1504 1496 1495 1498 1500 1502 1495 1494 1494 1495 1496 1496 1495 1496 1496 1496 1496 1496 1496 1496 1495 1495 1496 1496 1497 1497 1498 1498 1498 1499 1499 1500 1501 1501 1501 1502 1502 1503 1503 1504
1502 1503 1504 1503 1504 1499 1495 1497 1497 1493 1492 1493 1493 1493 1494 1494 1494 1494 1494 1493 1493 1493 1493 1493 1493 1493 1493 1493 1494 1494 1495 1495 1496 1496 1497 1497 1498 1498 1499 1499 1500 1500 1501 1502
1500 1498 1497 1497 1496 1492 1494 1494 1493 1493 1492 1492 1492 1492 1492 1492 1492 1492 1492 1492 1491 1491 1491 1491 1490 1490 1490 1491 1491 1491 1492 1492 1493 1494 1494 1495 1495 1496 1496 1497 1497 1498 1499 1499
1497 1500 1498 1495 1491 1492 1492 1492 1491 1491 1490 1490 1489 1489 1489 1489 1489 1490 1490 1489 1489 1489 1489 1488 1488 1488 1488 1488 1488 1489 1489 1489 1490 1491 1492 1492 1493 1493 1494 1495 1495 1496 1496 1496
1495 1497 1494 1491 1489 1489 1488 1488 1488 1487 1487 1486 1486 1486 1486 1486 1487 1487 1487 1487 1487 1487 1486 1486 1486 1486 1486 1485 1485 1486 1486 1487 1488 1489 1489 1490 1490 1491 1492 1492 1493 1493 1494 1494
1492 1492 1490 1486 1485 1485 1484 1484 1485 1484 1483 1483 1483 1483 1483 1484 1484 1484 1485 1485 1485 1484 1484 1484 1484 1484 1483 1484 1483 1483 1484 1485 1485 1486 1487 1487 1488 1488 1489 1490 1490 1490 1491 1491